Location: Nairn
(57.5833°N, 3.8667°W)
Time: 03:38:12
(UTC+00:00)

Cosmos 1980 - Pass Details

Date: 07 August 2020
Orbit: 838 x 848 km, 71.0° (Epoch: 27 September)

Event Time Altitude Azimuth Distance (km) Brightness Sun altitude
Rises 00:35:27 0° 322° (NW) 3,413 7.7 -16.0°
Reaches altitude 10° 00:37:54 10° 324° (NW) 2,477 6.9 -16.0°
Maximum altitude 00:43:37 80° 52° (NE) 867 3.8 -15.9°
Enters shadow 00:48:59 12° 139° (SE) 2,354 5.6 -15.9°
